+ View the NASA Portal
+ Center for Near-Earth Object Studies
IMPORTANT:
The SSD Announcement email list is now available. Major changes are coming in the near future, including possible hostname and/or URL changes. To be notified of such changes, subscribe to this email list.
Please visit
this page
for more details.
Don't show this message again
JPL Small-Body Database Browser
Search:
[
help
]
226227 (2002 VV134)
Classification:
Main-belt Asteroid
SPK-ID:
2226227
[
Ephemeris
|
Orbit Diagram
|
Orbital Elements
|
Mission Design
|
Physical Parameters
|
Discovery Circumstances
]
[ show orbit diagram ]
Orbital Elements at Epoch 2458600.5 (2019-Apr-27.0) TDB
Reference:
JPL 14
(heliocentric ecliptic J2000)
Element
Value
Uncertainty (1-sigma)
Units
e
.1993572880635908
6.5946e-08
a
2.216583070895604
1.3576e-08
au
q
1.77469108111419
1.4419e-07
au
i
8.315973920533484
4.3319e-06
deg
node
85.90368060607976
4.7729e-05
deg
peri
247.8849018906324
4.8979e-05
deg
M
47.30737807459837
1.2685e-05
deg
t
p
2458442.101588178011
(2018-Nov-19.60158818)
4.1907e-05
TDB
period
1205.38128674129
3.30
1.1074e-05
3.032e-08
d
yr
n
.2986606843493053
2.7439e-09
deg/d
Q
2.658475060677018
1.6283e-08
au
Orbit Determination Parameters
# obs. used (total)
277
data-arc span
6322 days (17.31 yr)
first obs. used
2001-03-19
last obs. used
2018-07-10
planetary ephem.
DE431
SB-pert. ephem.
SB431-N16
condition code
0
norm. resid. RMS
.56681
source
ORB
producer
Otto Matic
solution date
2019-Jul-14 07:03:48
Additional Information
Earth MOID
= .78316 au
Jupiter MOID
= 2.72199 au
T_jup
= 3.613
[ show covariance matrix ]
[
Ephemeris
|
Orbit Diagram
|
Orbital Elements
|
Mission Design
|
Physical Parameters
|
Discovery Circumstances
]
Physical Parameter Table
Parameter
Symbol
Value
Units
Sigma
Reference
Notes
absolute magnitude
H
16.8
n/a
MPO454624
226227 (2002 VV134)
Discovered 2002-Nov-06 by LONEOS at Anderson Mesa
Reference:
20091202/Numbers.arc
Last Updated:
2009-12-04
[
Ephemeris
|
Orbit Diagram
|
Orbital Elements
|
Mission Design
|
Physical Parameters
|
Discovery Circumstances
]
2019-Dec-05 22:45 UT
(server date/time)
Site Manager:
Ryan S. Park
Webmaster
:
Alan B. Chamberlin